Everett, WA
on Thursday, November 22, 2012

Thursday
Previous Day Next Day
Daily Summary
 ActualAverageRecord
Temperature
Mean Temperature °F °F  
Max Temperature 48°F 47°F 65°F (1954)
Min Temperature 41°F 34°F 15°F (1985)
Degree Days
Heating Degree Days 20    
Moisture
Dew Point 35°F   
Average Humidity 71    
Maximum Humidity 86    
Minimum Humidity 50    
Precipitation
Precipitation 0.00 in in in ()
Wind
Wind Speed 5 mph   
Max Wind Speed 13 mph   
Max Gust Speed 18 mph   
Visibility 10 miles   
Events Rain   
Averages and records for this station are not official NWS values.
Key: T is trace of precipitation, MM is missing value
Source: NWS Daily Summary
Seasonal Weather Averages
Time(PST)TemperatureDew PointHumidity Pressure Visibility Wind DirectionWind SpeedGust SpeedPrecipitationEvents Conditions
12:50 AM 42.8°F 37.4°F 81% 30.29 in 10.0 miles ESE 3.5 mph - N/A   Overcast
12:53 AM 43.0°F 37.9°F 82% 30.30 in 10.0 miles ESE 3.5 mph - N/A   Overcast
1:11 AM 42.8°F 37.4°F 81% 30.30 in 10.0 miles SE 3.5 mph - N/A   Overcast
1:53 AM 42.1°F 37.0°F 82% 30.31 in 10.0 miles SSE 6.9 mph - N/A   Mostly Cloudy
2:53 AM 42.1°F 37.0°F 82% 30.33 in 10.0 miles SSE 5.8 mph - N/A   Mostly Cloudy
3:53 AM 42.1°F 37.0°F 82% 30.34 in 10.0 miles SSE 5.8 mph - N/A   Overcast
4:18 AM 42.8°F 35.6°F 76% 30.34 in 10.0 miles SSE 6.9 mph - N/A   Scattered Clouds
4:53 AM 42.1°F 36.0°F 79% 30.35 in 10.0 miles SSE 3.5 mph - N/A   Mostly Cloudy
5:53 AM 42.1°F 35.1°F 76% 30.37 in 10.0 miles Variable 3.5 mph - N/A   Overcast
6:53 AM 42.1°F 36.0°F 79% 30.37 in 10.0 miles Variable 5.8 mph - N/A   Mostly Cloudy
7:53 AM 41.0°F 37.0°F 86% 30.37 in 10.0 miles ESE 6.9 mph - N/A   Partly Cloudy
8:53 AM 42.1°F 37.0°F 82% 30.37 in 10.0 miles ESE 4.6 mph - N/A   Scattered Clouds
9:53 AM 43.0°F 36.0°F 76% 30.36 in 10.0 miles ESE 6.9 mph - N/A   Overcast
10:53 AM 43.0°F 36.0°F 76% 30.35 in 10.0 miles ESE 4.6 mph - N/A   Overcast
11:53 AM 45.0°F 35.1°F 68% 30.34 in 10.0 miles Calm Calm - N/A   Overcast
12:53 PM 45.0°F 35.1°F 68% 30.32 in 10.0 miles ESE 9.2 mph - N/A   Overcast
1:53 PM 46.0°F 34.0°F 63% 30.31 in 10.0 miles Variable 3.5 mph - N/A   Overcast
2:53 PM 46.0°F 34.0°F 63% 30.30 in 10.0 miles Variable 4.6 mph - N/A   Overcast
3:53 PM 46.0°F 34.0°F 63% 30.30 in 10.0 miles Calm Calm - N/A   Overcast
4:53 PM 48.0°F 33.1°F 56% 30.29 in 10.0 miles SSE 11.5 mph - N/A   Overcast
5:53 PM 46.9°F 34.0°F 61% 30.27 in 10.0 miles Variable 4.6 mph - N/A   Mostly Cloudy
6:53 PM 46.9°F 33.1°F 59% 30.23 in 10.0 miles SSE 12.7 mph - N/A   Scattered Clouds
7:53 PM 48.0°F 30.9°F 52% 30.23 in 10.0 miles SSE 11.5 mph - N/A   Overcast
8:53 PM 48.9°F 30.9°F 50% 30.20 in 10.0 miles SSE 8.1 mph 16.1 mph N/A   Overcast
9:53 PM 48.0°F 32.0°F 54% 30.22 in 10.0 miles South 6.9 mph - N/A   Overcast
10:53 PM 46.9°F 35.1°F 63% 30.22 in 10.0 miles SSE 10.4 mph - 0.00 in Rain Light Rain
11:53 PM 46.9°F 36.0°F 66% 30.21 in 10.0 miles SSE 12.7 mph 18.4 mph 0.00 in Rain Light Rain
Moon Phase
Nov. 22 Nov. 28 Dec. 06 Dec. 13 Dec. 20
Sunrise:07:26 AM (PST) Moon Rise:01:32 PM (PST)11/22
Sunset:04:24 PM (PST) Moon Set:01:29 AM (PST)11/22

Copyright © 2014 The Weather Underground, Inc.